Regional Weather Roundup
Issued by NWS

Home | Current Version | Previous Version | Graphics & Text | Print | Product List | Glossary On
Versions: 1 2 3 4 5 6 7 8 9 10 11 12 13 14 15 16 17 18 19 20 21 22 23 24 25 26 27 28 29 30 31 32 33 34 35 36 37 38 39 40 41 42 43 44 45 46 47 48 49 50
000
ASUS45 KCYS 311510
RWRWY

WYOMING REGIONAL WEATHER ROUNDUP
NATIONAL WEATHER SERVICE CHEYENNE WY
900 AM MDT FRI JUL 31 2015

NOTE:  "FAIR" INDICATES FEW OR NO CLOUDS BELOW 12,000 FEET
WITH NO SIGNIFICANT WEATHER AND/OR OBSTRUCTIONS TO VISIBILITY.

WYZ001-311600-
YELLOWSTONE NATIONAL PARK

CITY           SKY/WX    TMP DP  RH WIND       PRES   REMARKS
LK YELLOWSTONE   N/A     55  45  68 E5        30.55R
W YELLOWSTONE  NOT AVBL

$$
WYZ002>013-054>058-071-098>099-311600-
NORTHERN WYOMING

CITY           SKY/WX    TMP DP  RH WIND       PRES   REMARKS
JACKSON        NOT AVBL
CODY           FAIR      73  39  29 SW5       30.33S
GREYBULL       FAIR      68  37  32 SE5       30.26F
WORLAND        FAIR      67  32  27 SW3       30.28S
SHERIDAN       FAIR      70  44  39 CALM      30.26S
BUFFALO        FAIR      76  41  28 E3        30.32S
GILLETTE       FAIR      78  47  33 SE8       30.28S
HULETT         FAIR      73  46  38 NE5       30.30S
NEWCASTLE      FAIR      79  43  27 MISG      30.28S

$$
WYZ014>020-022>026-101>103-311600-
CENTRAL WYOMING

CITY           SKY/WX    TMP DP  RH WIND       PRES   REMARKS
BIG PINEY      FAIR      60  34  37 CALM      30.47S
PINEDALE       FAIR      61  32  33 NW6       30.48R
DUBOIS         FAIR      57  30  35 NW8       30.48F
LANDER         FAIR      69  41  36 CALM      30.36S
RIVERTON       FAIR      71  37  28 NE5       30.37S
CASPER         FAIR      69  36  29 VRB3      30.36S
DOUGLAS        FAIR      68  43  40 NW6       30.34S

$$
WYZ021-027>030-104>119-311600-
SOUTHERN WYOMING

CITY           SKY/WX    TMP DP  RH WIND       PRES   REMARKS
EVANSTON       FAIR      66  25  21 CALM      30.46R
KEMMERER       FAIR      61  30  31 N6        30.48S
FORT BRIDGER   SUNNY     68  28  22 NW5       30.48S
ROCK SPRINGS   FAIR      62  28  27 E3        30.44R
DIXON          FAIR      66  38  36 SW3       30.43S
RAWLINS        FAIR      68  35  29 E10       30.44S
SARATOGA       FAIR      64  37  36 CALM      30.46F
LARAMIE        FAIR      66  46  48 VRB5      30.47S
CHEYENNE       FAIR      75  53  46 SW3       30.39S
TORRINGTON     FAIR      68  56  65 S3        30.28S
PINE BLUFFS    FAIR      70  57  64 CALM      30.35R

$$



USA.gov is the U.S. government's official web portal to all federal, state and local government web resources and services.